This demonstration page uses our WeatherBlox Daily Observations layout. Learn more.

Left ArrowRight Arrow

39.12711, -84.51439

Hourly Observations for October 27, 2016

Temp ( °F °C ) Dew Point ( °F °C ) Humidity (%) Winds ( mph kmh ) Pressure ( in mb ) Visibility ( mi km ) Precip ( " mm )
12:53 am 00:53 Clear 53 11.7 53 11.7 100 100 Calm 30.06 1018 10 16 0.00 0.00
1:53 am 01:53 Clear 55 12.8 54 12.2 96 96 Calm 30.06 1018 10 16 0.00 0.00
2:53 am 02:53 Clear 61 16.1 53 11.7 75 75 SSW 12 19 30.05 1018 10 16 0.00 0.00
3:53 am 03:53 Clear 63 17.2 52 11.1 68 68 SSW 13 20 30.04 1017 10 16 0.00 0.00
4:53 am 04:53 Clear 61 16.1 51 10.6 70 70 SSW 10 17 30.04 1017 10 16 0.00 0.00
5:53 am 05:53 Mostly Cloudy 63 17.2 52 11.1 68 68 SSW 12 19 30.04 1017 10 16 0.00 0.00
6:53 am 06:53 Cloudy 63 17.2 53 11.7 70 70 SW 9 15 30.05 1018 10 16 0.00 0.00
7:27 am 07:27 Cloudy 63 17.2 55 12.8 76 76 SW 13 20 30.03 1017 10 16 0.00 0.03
7:53 am 07:53 Cloudy 62 16.7 55 12.8 78 78 SW 9 15 30.06 1018 10 16 0.00 0.03
8:53 am 08:53 Cloudy 63 17.2 57 13.9 81 81 WSW 10 17 30.08 1019 10 16 0.00 0.00
9:53 am 09:53 Cloudy 63 17.2 58 14.4 84 84 WSW 12 19 30.10 1019 10 16 0.00 0.00
10:53 am 10:53 Cloudy 61 16.1 56 13.3 84 84 W 14 22 30.12 1020 10 16 0.00 0.00
11:24 am 11:24 Cloudy 59 15 55 13 88 88 NW 13 20 30.15 1021 10 16 0.00 0.00
11:53 am 11:53 Cloudy 58 14.4 53 11.7 84 84 WNW 10 17 30.16 1021 10 16 0.00 0.03
12:53 pm 12:53 Cloudy 55 12.8 51 10.6 87 87 WNW 7 11 30.18 1022 10 16 0.00 0.00
1:53 pm 13:53 Cloudy 56 13.3 49 9.4 77 77 VRB 6 9 30.19 1022 10 16 0.00 0.00
2:53 pm 14:53 Cloudy 55 12.8 48 8.9 77 77 NW 9 15 30.19 1022 10 16 0.00 0.00
3:53 pm 15:53 Cloudy 55 12.8 46 7.8 72 72 NNW 9 15 30.20 1023 10 16 0.00 0.00
4:41 pm 16:41 Cloudy 55 12.8 46 7.8 72 72 W 8 13 30.21 1023 10 16 0.00 0.00
4:53 pm 16:53 Cloudy 55 12.8 46 7.8 72 72 WNW 9 15 30.22 1023 10 16 0.00 0.00
5:53 pm 17:53 Cloudy 54 12.2 47 8.3 77 77 W 7 11 30.24 1024 10 16 0.00 0.00
6:53 pm 18:53 Cloudy 54 12.2 46 7.8 75 75 NW 6 9 30.24 1024 10 16 0.00 0.00
7:53 pm 19:53 Cloudy 54 12.2 45 7.2 72 72 WNW 5 7 30.27 1025 10 16 0.00 0.00
8:53 pm 20:53 Cloudy 53 11.7 44 6.7 72 72 W 7 11 30.27 1025 10 16 0.00 0.00
9:53 pm 21:53 Cloudy 53 11.7 45 7.2 74 74 NW 3 6 30.28 1025 10 16 0.00 0.00
10:53 pm 22:53 Cloudy 52 11.1 46 7.8 80 80 W 5 7 30.28 1026 10 16 0.00 0.00
11:53 pm 23:53 Cloudy 50 10 47 8.3 89 89 N 3 6 30.29 1026 10 16 0.00 0.00

Powered by AerisWeather